Previsão horária em Barranquilla

Hoje, 22 Outubro, Quinta-feira

Tempo Temperatura Precipitação Vento Pressão Humidade
00:00 +28°C° 0 mm 3 m/s 753 mmHg 83%
01:00 +28°C° 0 mm 3 m/s 753 mmHg 84%
02:00 +28°C° 0 mm 3 m/s 752 mmHg 84%
03:00 +28°C° 0 mm 2 m/s 752 mmHg 85%
04:00 +28°C° 0 mm 2 m/s 752 mmHg 85%
05:00 +28°C° 0 mm 2 m/s 753 mmHg 85%
06:00 +28°C° 0 mm 2 m/s 753 mmHg 84%
07:00 +29°C° 0 mm 2 m/s 754 mmHg 83%
08:00 +30°C° 0 mm 1 m/s 754 mmHg 77%
09:00 +31°C° 0 mm 1 m/s 754 mmHg 70%
10:00 +33°C° 0 mm 1 m/s 754 mmHg 64%
11:00 +34°C° 0.5 mm 2 m/s 754 mmHg 66%
12:00 +34°C° 0.5 mm 2 m/s 753 mmHg 67%
13:00 +34°C° 0.5 mm 3 m/s 753 mmHg 69%
14:00 +33°C° 0.4 mm 3 m/s 752 mmHg 71%
15:00 +33°C° 0.4 mm 3 m/s 752 mmHg 73%
16:00 +32°C° 0.4 mm 4 m/s 751 mmHg 75%
17:00 +31°C° 0 mm 3 m/s 752 mmHg 77%
18:00 +30°C° 0 mm 3 m/s 752 mmHg 79%
19:00 +29°C° 0 mm 3 m/s 753 mmHg 82%
20:00 +29°C° 0 mm 3 m/s 753 mmHg 82%
21:00 +29°C° 0 mm 3 m/s 753 mmHg 82%
22:00 +29°C° 0 mm 3 m/s 754 mmHg 82%
23:00 +29°C° 0 mm 2 m/s 754 mmHg 83%

Amanhã, 23 Outubro, Sexta-feira

Tempo Temperatura Precipitação Vento Pressão Humidade
00:00 +29°C° 0 mm 2 m/s 753 mmHg 84%
01:00 +28°C° 0 mm 2 m/s 753 mmHg 84%
02:00 +28°C° 0 mm 1 m/s 753 mmHg 85%
03:00 +28°C° 0 mm 1 m/s 752 mmHg 86%
04:00 +28°C° 0 mm 1 m/s 752 mmHg 87%
05:00 +28°C° 0 mm 1 m/s 753 mmHg 87%
06:00 +28°C° 0 mm 1 m/s 753 mmHg 86%
07:00 +29°C° 0 mm 1 m/s 754 mmHg 86%
08:00 +30°C° 0.1 mm 1 m/s 754 mmHg 79%
09:00 +31°C° 0.1 mm 2 m/s 754 mmHg 72%
10:00 +34°C° 0.1 mm 2 m/s 754 mmHg 65%
11:00 +34°C° 0.7 mm 2 m/s 753 mmHg 67%
12:00 +34°C° 0.7 mm 2 m/s 753 mmHg 68%
13:00 +34°C° 0.7 mm 2 m/s 752 mmHg 70%
14:00 +33°C° 1.5 mm 3 m/s 752 mmHg 73%
15:00 +31°C° 1.5 mm 3 m/s 751 mmHg 76%
16:00 +30°C° 1.5 mm 3 m/s 751 mmHg 79%
17:00 +30°C° 0.1 mm 3 m/s 751 mmHg 81%
18:00 +30°C° 0.1 mm 2 m/s 752 mmHg 82%
19:00 +29°C° 0.1 mm 2 m/s 752 mmHg 83%
20:00 +29°C° 0.1 mm 2 m/s 753 mmHg 84%
21:00 +29°C° 0.1 mm 2 m/s 753 mmHg 85%
22:00 +29°C° 0.1 mm 2 m/s 753 mmHg 86%
23:00 +29°C° 0.7 mm 2 m/s 753 mmHg 86%

Depois de amanhã, 24 Outubro, Sábado

Tempo Temperatura Precipitação Vento Pressão Humidade
00:00 +29°C° 0.7 mm 2 m/s 753 mmHg 87%
01:00 +28°C° 0.7 mm 2 m/s 752 mmHg 87%
02:00 +28°C° 0.7 mm 2 m/s 752 mmHg 88%
03:00 +28°C° 0.7 mm 2 m/s 752 mmHg 89%
04:00 +28°C° 0.7 mm 2 m/s 752 mmHg 90%
05:00 +28°C° 0.1 mm 3 m/s 752 mmHg 90%
06:00 +27°C° 0.1 mm 3 m/s 753 mmHg 89%
07:00 +27°C° 0.1 mm 4 m/s 753 mmHg 89%
08:00 +29°C° 0 mm 3 m/s 754 mmHg 82%
09:00 +30°C° 0 mm 3 m/s 754 mmHg 75%
10:00 +33°C° 0 mm 3 m/s 754 mmHg 67%
11:00 +33°C° 0.1 mm 3 m/s 754 mmHg 66%
12:00 +32°C° 0.1 mm 2 m/s 753 mmHg 65%
13:00 +33°C° 0.1 mm 1 m/s 752 mmHg 63%
14:00 +32°C° 1.2 mm 2 m/s 752 mmHg 69%
15:00 +31°C° 1.2 mm 2 m/s 751 mmHg 74%
16:00 +30°C° 1.2 mm 3 m/s 751 mmHg 80%
17:00 +30°C° 1.6 mm 3 m/s 752 mmHg 82%
18:00 +29°C° 1.6 mm 3 m/s 752 mmHg 84%
19:00 +28°C° 1.6 mm 4 m/s 753 mmHg 86%
20:00 +28°C° 1.3 mm 3 m/s 753 mmHg 86%
21:00 +28°C° 1.3 mm 3 m/s 753 mmHg 86%
22:00 +28°C° 1.3 mm 3 m/s 754 mmHg 86%
23:00 +27°C° 1.2 mm 3 m/s 753 mmHg 86%

, 25 Outubro, Domingo

Tempo Temperatura Precipitação Vento Pressão Humidade
00:00 +27°C° 1.2 mm 2 m/s 753 mmHg 86%
01:00 +27°C° 1.2 mm 2 m/s 753 mmHg 86%
02:00 +27°C° 1 mm 2 m/s 753 mmHg 87%
03:00 +27°C° 1 mm 2 m/s 753 mmHg 88%
04:00 +26°C° 1 mm 2 m/s 753 mmHg 89%
05:00 +26°C° 0.9 mm 2 m/s 753 mmHg 89%
06:00 +27°C° 0.9 mm 2 m/s 754 mmHg 90%
07:00 +27°C° 0.9 mm 2 m/s 754 mmHg 90%
08:00 +27°C° 1.1 mm 2 m/s 755 mmHg 87%
09:00 +28°C° 1.1 mm 2 m/s 755 mmHg 85%
10:00 +28°C° 1.1 mm 1 m/s 755 mmHg 83%
11:00 +29°C° 1 mm 1 m/s 755 mmHg 79%
12:00 +29°C° 1 mm 1 m/s 754 mmHg 76%
13:00 +30°C° 1 mm 1 m/s 753 mmHg 72%
14:00 +30°C° 0.5 mm 1 m/s 753 mmHg 72%
15:00 +30°C° 0.5 mm 2 m/s 753 mmHg 73%
16:00 +30°C° 0.5 mm 2 m/s 752 mmHg 73%
17:00 +29°C° 0.1 mm 2 m/s 753 mmHg 75%
18:00 +29°C° 0.1 mm 2 m/s 753 mmHg 78%
19:00 +28°C° 0.1 mm 2 m/s 753 mmHg 80%
20:00 +28°C° 0.2 mm 2 m/s 754 mmHg 81%
21:00 +28°C° 0.2 mm 2 m/s 754 mmHg 81%
22:00 +28°C° 0.2 mm 2 m/s 754 mmHg 81%
23:00 +28°C° 0.2 mm 2 m/s 754 mmHg 82%

25 Outubro, Domingo

Tempo Temperatura Precipitação Vento Pressão Humidade
00:00 +27°C° 1.2 mm 2 m/s 753 mmHg 86%
01:00 +27°C° 1.2 mm 2 m/s 753 mmHg 86%
02:00 +27°C° 1 mm 2 m/s 753 mmHg 87%
03:00 +27°C° 1 mm 2 m/s 753 mmHg 88%
04:00 +26°C° 1 mm 2 m/s 753 mmHg 89%
05:00 +26°C° 0.9 mm 2 m/s 753 mmHg 89%
06:00 +27°C° 0.9 mm 2 m/s 754 mmHg 90%
07:00 +27°C° 0.9 mm 2 m/s 754 mmHg 90%
08:00 +27°C° 1.1 mm 2 m/s 755 mmHg 87%
09:00 +28°C° 1.1 mm 2 m/s 755 mmHg 85%
10:00 +28°C° 1.1 mm 1 m/s 755 mmHg 83%
11:00 +29°C° 1 mm 1 m/s 755 mmHg 79%
12:00 +29°C° 1 mm 1 m/s 754 mmHg 76%
13:00 +30°C° 1 mm 1 m/s 753 mmHg 72%
14:00 +30°C° 0.5 mm 1 m/s 753 mmHg 72%
15:00 +30°C° 0.5 mm 2 m/s 753 mmHg 73%
16:00 +30°C° 0.5 mm 2 m/s 752 mmHg 73%
17:00 +29°C° 0.1 mm 2 m/s 753 mmHg 75%
18:00 +29°C° 0.1 mm 2 m/s 753 mmHg 78%
19:00 +28°C° 0.1 mm 2 m/s 753 mmHg 80%
20:00 +28°C° 0.2 mm 2 m/s 754 mmHg 81%
21:00 +28°C° 0.2 mm 2 m/s 754 mmHg 81%
22:00 +28°C° 0.2 mm 2 m/s 754 mmHg 81%
23:00 +28°C° 0.2 mm 2 m/s 754 mmHg 82%

26 Outubro, Segunda-feira

Tempo Temperatura Precipitação Vento Pressão Humidade
00:00 +28°C° 0.2 mm 2 m/s 754 mmHg 83%
01:00 +28°C° 0.2 mm 2 m/s 753 mmHg 84%
02:00 +27°C° 0.8 mm 2 m/s 753 mmHg 84%
03:00 +27°C° 0.8 mm 2 m/s 753 mmHg 85%
04:00 +27°C° 0.8 mm 2 m/s 753 mmHg 86%
05:00 +27°C° 0.1 mm 2 m/s 753 mmHg 87%
06:00 +27°C° 0.1 mm 2 m/s 754 mmHg 87%
07:00 +27°C° 0.1 mm 3 m/s 754 mmHg 88%
08:00 +28°C° 0.2 mm 2 m/s 754 mmHg 82%
09:00 +30°C° 0.2 mm 2 m/s 754 mmHg 77%
10:00 +31°C° 0.2 mm 2 m/s 755 mmHg 71%
11:00 +31°C° 0.7 mm 2 m/s 754 mmHg 70%
12:00 +32°C° 0.7 mm 2 m/s 753 mmHg 70%
13:00 +32°C° 0.7 mm 2 m/s 752 mmHg 70%
14:00 +31°C° 0.5 mm 2 m/s 752 mmHg 71%
15:00 +31°C° 0.5 mm 3 m/s 751 mmHg 73%
16:00 +31°C° 0.5 mm 3 m/s 751 mmHg 74%
17:00 +30°C° 0.1 mm 4 m/s 751 mmHg 77%
18:00 +29°C° 0.1 mm 4 m/s 752 mmHg 80%
19:00 +29°C° 0.1 mm 5 m/s 752 mmHg 83%
20:00 +29°C° 0.1 mm 5 m/s 752 mmHg 84%
21:00 +29°C° 0.1 mm 5 m/s 753 mmHg 85%
22:00 +28°C° 0.1 mm 5 m/s 753 mmHg 85%
23:00 +28°C° 0 mm 5 m/s 753 mmHg 87%

27 Outubro, Terça-feira

Tempo Temperatura Precipitação Vento Pressão Humidade
00:00 +28°C° 0 mm 4 m/s 753 mmHg 89%
01:00 +27°C° 0 mm 4 m/s 752 mmHg 90%
02:00 +27°C° 0 mm 4 m/s 752 mmHg 91%
03:00 +27°C° 0 mm 3 m/s 752 mmHg 91%
04:00 +27°C° 0 mm 3 m/s 752 mmHg 91%
05:00 +27°C° 0 mm 3 m/s 752 mmHg 90%
06:00 +27°C° 0 mm 3 m/s 753 mmHg 90%
07:00 +27°C° 0 mm 3 m/s 753 mmHg 89%
08:00 +29°C° 0 mm 3 m/s 753 mmHg 82%
09:00 +30°C° 0 mm 3 m/s 753 mmHg 75%
10:00 +32°C° 0 mm 2 m/s 754 mmHg 68%
11:00 +32°C° 0.6 mm 2 m/s 753 mmHg 68%
12:00 +33°C° 0.6 mm 3 m/s 752 mmHg 69%
13:00 +33°C° 0.6 mm 3 m/s 752 mmHg 69%
14:00 +31°C° 0.8 mm 3 m/s 751 mmHg 71%
15:00 +32°C° 0.8 mm 4 m/s 751 mmHg 74%
16:00 +32°C° 0.8 mm 4 m/s 750 mmHg 76%
17:00 +30°C° 0.2 mm 4 m/s 751 mmHg 79%
18:00 +29°C° 0.2 mm 4 m/s 751 mmHg 82%
19:00 +29°C° 0.2 mm 4 m/s 752 mmHg 84%
20:00 +29°C° 0.1 mm 4 m/s 752 mmHg 84%
21:00 +28°C° 0.1 mm 4 m/s 752 mmHg 85%
22:00 +28°C° 0.1 mm 4 m/s 752 mmHg 85%
23:00 +28°C° 0 mm 4 m/s 752 mmHg 86%
Mostrar mais